Location: Alfords
(31.4624°N, 83.9238°W)
Time: 11:12:48
(UTC+00:00)

N. Korean satellite - Visible Passes

Search period start: 17 September 2021 00:00
Search period end: 27 September 2021 00:00
Orbit: 448 x 499 km, 97.3° (Epoch: 16 September)

Date Brightness Start Highest point End Pass type
(mag) Time Alt. Az. Time Alt. Az. Time Alt. Az.
17 Sep 7.9 10:28:25 10° NNE 10:31:47 42° E 10:35:10 10° S visible
18 Sep 9.6 10:01:35 10° NE 10:04:00 17° E 10:06:24 10° SE visible
20 Sep 7.1 10:38:18 10° NNE 10:41:48 63° E 10:45:20 10° S visible
21 Sep 9.1 10:11:07 10° NE 10:14:01 24° E 10:16:58 10° SSE visible
23 Sep 6.5 10:48:12 10° N 10:51:45 89° WNW 10:55:21 10° SSW visible
24 Sep 8.4 10:20:44 10° NNE 10:24:00 33° E 10:27:17 10° SSE visible
25 Sep 9.8 09:54:13 10° ENE 09:56:08 14° E 09:58:05 10° SE visible
26 Sep 6.6 10:58:06 10° N 11:01:39 62° WNW 11:05:13 10° SSW visible
